KC9VAF Weather Reports


Display with metric or nautical units.
time (UTC)temp
F
wind
direction
speed
MPH
gust
MPH
rain 1hr
in
rain 24hr
in
rain mn
in
humidity
%
barometer
mb
20260902095039 74 93 0.0 1.0 0.00 0.00 0.00 98 1015.1
20260902094535 74 104 0.0 1.0 0.00 0.00 0.00 98 1015.3
20260902094030 73 82 1.0 1.0 0.00 0.00 0.00 98 1015.7
20260902093525 73 82 0.0 0.0 0.00 0.00 0.00 98 1015.0
20260902093025 73 85 0.0 0.0 0.00 0.00 0.00 98 1015.2
20260902092520 73 80 0.0 0.0 0.00 0.00 0.00 98 1015.3
20260902092015 73 69 0.0 0.0 0.00 0.00 0.00 98 1015.4
20260902091510 73 72 0.0 0.0 0.00 0.00 0.00 98 1015.0
20260902091006 73 82 0.0 0.0 0.00 0.00 0.00 98 1015.1
20260902090502 73 88 0.0 0.0 0.00 0.00 0.00 98 1015.0
20260902090000 73 83 0.0 0.0 0.00 0.00 0.00 98 1015.0
20260902085455 73 82 0.0 0.0 0.00 0.00 0.00 98 1015.0
20260902084950 73 81 0.0 0.0 0.00 0.00 0.00 98 1015.1
20260902084447 73 82 0.0 0.0 0.00 0.00 0.00 98 1015.1
20260902083943 73 78 0.0 0.0 0.00 0.00 0.00 98 1014.9
20260902083442 73 78 0.0 0.0 0.00 0.00 0.00 98 1015.1
20260902082937 73 78 0.0 0.0 0.00 0.00 0.00 98 1015.1
20260902082433 73 75 0.0 0.0 0.00 0.00 0.00 98 1015.0
20260902081929 74 82 0.0 0.0 0.00 0.00 0.00 98 1014.9
20260902081425 74 82 0.0 0.0 0.00 0.00 0.00 98 1014.7
20260902080920 74 91 0.0 0.0 0.00 0.00 0.00 98 1014.7
20260902080416 74 88 0.0 0.0 0.00 0.00 0.00 98 1014.8
20260902075915 74 20 0.0 0.0 0.00 0.00 0.00 97 1014.9
20260902075412 75 158 0.0 0.0 0.00 0.00 0.00 97 1015.0
20260902074907 75 90 0.0 0.0 0.00 0.00 0.00 97 1015.0
20260902074403 75 75 0.0 1.0 0.00 0.00 0.00 97 1014.9
20260902073857 75 69 0.0 0.0 0.00 0.00 0.00 97 1015.2
20260902073354 75 97 0.0 0.0 0.00 0.00 0.00 97 1015.0
20260902072849 75 86 0.0 0.0 0.00 0.00 0.00 97 1015.0
20260902072345 75 57 1.0 1.0 0.00 0.00 0.00 98 1014.9
20260902071842 75 24 1.0 2.0 0.00 0.00 0.00 98 1015.1
20260902071341 75 49 2.0 2.0 0.00 0.00 0.00 97 1015.0
20260902070837 75 77 0.0 0.0 0.00 0.00 0.00 97 1014.9
20260902070332 75 83 0.0 0.0 0.00 0.00 0.00 97 1014.7
20260902065831 75 82 0.0 0.0 0.00 0.00 0.00 97 1014.8
20260902065326 75 84 0.0 0.0 0.00 0.00 0.00 97 1014.9
20260902064821 75 93 0.0 0.0 0.00 0.00 0.00 97 1014.6
20260902064317 75 88 0.0 0.0 0.00 0.00 0.00 97 1014.8
20260902063812 76 91 0.0 0.0 0.00 0.00 0.00 97 1015.0
20260902063307 76 108 0.0 0.0 0.00 0.00 0.00 97 1014.8
20260902062801 76 90 0.0 0.0 0.00 0.00 0.00 97 1015.1
20260902062256 76 92 0.0 0.0 0.00 0.00 0.00 97 1015.1
20260902061755 76 90 0.0 0.0 0.00 0.00 0.00 97 1015.0
20260902061250 76 85 0.0 0.0 0.00 0.00 0.00 97 1015.1
20260902060748 76 81 0.0 0.0 0.00 0.00 0.00 97 1015.1
20260902060243 76 83 0.0 0.0 0.00 0.00 0.00 97 1015.4
20260902055738 76 81 0.0 0.0 0.00 0.00 0.00 97 1015.2
20260902055234 76 79 0.0 0.0 0.00 0.00 0.00 97 1015.3
20260902054729 76 77 0.0 0.0 0.00 0.00 0.00 97 1015.4
20260902054225 76 77 0.0 0.0 0.00 0.00 0.00 97 1015.7
20260902053720 76 78 0.0 0.0 0.00 0.00 0.00 97 1015.1
20260902053220 76 74 0.0 0.0 0.00 0.00 0.00 97 1015.1
20260902052719 76 77 0.0 0.0 0.00 0.00 0.00 97 1015.0
20260902052215 76 71 0.0 0.0 0.00 0.00 0.00 97 1014.8
20260902051714 76 81 0.0 0.0 0.00 0.00 0.00 97 1015.0
20260902051209 76 84 0.0 0.0 0.00 0.00 0.00 97 1014.6
20260902050703 76 104 0.0 0.0 0.00 0.00 0.00 97 1014.3
20260902050159 76 92 0.0 0.0 0.00 0.00 0.00 97 1014.6
20260902045653 76 77 0.0 0.0 0.00 0.07 0.07 97 1014.9
20260902045149 76 71 0.0 0.0 0.00 0.07 0.07 97 1015.0
20260902044644 76 71 0.0 1.0 0.00 0.07 0.07 97 1015.0
20260902044140 76 84 0.0 0.0 0.00 0.07 0.07 97 1014.8
20260902043635 76 89 0.0 0.0 0.00 0.07 0.07 97 1014.5
20260902043130 76 83 0.0 0.0 0.00 0.07 0.07 97 1014.6
20260902042629 76 81 0.0 0.0 0.00 0.07 0.07 97 1014.6
20260902042125 76 83 0.0 0.0 0.00 0.07 0.07 97 1014.7
20260902041625 76 81 0.0 0.0 0.00 0.07 0.07 97 1014.9
20260902041119 76 76 0.0 0.0 0.00 0.07 0.07 97 1014.8
20260902040619 76 77 0.0 0.0 0.00 0.07 0.07 97 1014.6
20260902040114 76 56 1.0 1.0 0.00 0.07 0.07 97 1014.5
20260902035612 76 107 0.0 1.0 0.00 0.07 0.07 97 1014.7
20260902035108 76 104 1.0 1.0 0.00 0.07 0.07 97 1014.6
20260902034607 76 138 0.0 1.0 0.00 0.07 0.07 97 1014.6
20260902034101 76 121 0.0 1.0 0.00 0.07 0.07 97 1014.8
20260902033600 76 109 1.0 1.0 0.00 0.07 0.07 96 1014.7
20260902033055 76 84 0.0 0.0 0.00 0.07 0.07 96 1014.6
20260902032554 76 84 0.0 0.0 0.00 0.07 0.07 96 1014.8
20260902032049 76 83 0.0 0.0 0.00 0.07 0.07 96 1015.1
20260902031543 76 78 0.0 0.0 0.00 0.07 0.07 96 1014.9
20260902031040 76 78 0.0 0.0 0.00 0.07 0.07 96 1014.9
20260902030534 76 77 0.0 0.0 0.00 0.07 0.07 96 1015.0
20260902030034 76 78 0.0 0.0 0.00 0.07 0.07 96 1015.2
20260902025529 77 70 0.0 0.0 0.00 0.07 0.07 96 1015.0
20260902025024 77 82 0.0 0.0 0.00 0.07 0.07 96 1015.0
20260902024519 77 83 0.0 0.0 0.00 0.07 0.07 96 1014.9
20260902024014 77 84 0.0 0.0 0.00 0.07 0.07 96 1015.0
20260902023510 77 84 0.0 0.0 0.00 0.07 0.07 96 1015.2
20260902023010 77 82 0.0 0.0 0.00 0.07 0.07 96 1015.2
20260902022504 77 82 0.0 0.0 0.00 0.07 0.07 96 1015.3
20260902022000 77 82 0.0 0.0 0.00 0.07 0.07 96 1015.4
20260902021455 77 74 0.0 1.0 0.00 0.07 0.07 96 1015.4
20260902020950 77 78 0.0 0.0 0.00 0.07 0.07 96 1015.3
20260902020446 77 84 0.0 0.0 0.00 0.07 0.07 96 1015.1
20260902015942 77 97 0.0 0.0 0.00 0.07 0.07 96 1015.6
20260902015437 77 69 0.0 0.0 0.00 0.07 0.07 96 1015.7
20260902014932 77 56 1.0 1.0 0.00 0.07 0.07 95 1015.4
20260902014429 77 73 0.0 0.0 0.00 0.07 0.07 95 1015.0
20260902013928 77 82 0.0 0.0 0.00 0.07 0.07 95 1015.0
20260902013424 77 76 0.0 0.0 0.00 0.07 0.07 95 1015.0
20260902012919 77 76 0.0 0.0 0.00 0.07 0.07 95 1014.9
20260902012414 77 82 0.0 0.0 0.00 0.07 0.07 95 1015.1
20260902011910 77 75 0.0 0.0 0.00 0.07 0.07 95 1014.7
20260902011405 77 76 0.0 0.0 0.00 0.07 0.07 95 1014.8
20260902010859 77 75 0.0 0.0 0.00 0.07 0.07 95 1014.8
20260902010353 77 55 1.0 1.0 0.00 0.07 0.07 94 1014.7
20260902005852 77 82 0.0 0.0 0.00 0.07 0.07 94 1014.7
20260902005346 78 81 0.0 0.0 0.00 0.07 0.07 94 1014.7
20260902004842 78 81 0.0 0.0 0.00 0.07 0.07 94 1014.9
20260902004336 78 84 0.0 0.0 0.00 0.07 0.07 94 1014.6
20260902003832 78 84 0.0 0.0 0.00 0.07 0.07 93 1014.6
20260902003327 78 83 0.0 0.0 0.00 0.07 0.07 93 1014.6
20260902002823 78 82 0.0 0.0 0.00 0.07 0.07 93 1014.5
20260902002322 78 81 0.0 0.0 0.00 0.07 0.07 92 1014.5
20260902001818 79 81 0.0 0.0 0.00 0.07 0.07 92 1014.7
20260902001313 79 82 0.0 0.0 0.00 0.07 0.07 92 1014.5
20260902000812 79 75 0.0 0.0 0.00 0.07 0.07 92 1014.8
20260902000307 79 75 0.0 0.0 0.00 0.07 0.07 91 1014.6
20260901235802 79 75 0.0 0.0 0.00 0.07 0.07 91 1014.6
20260901235257 79 72 0.0 0.0 0.00 0.07 0.07 91 1014.5
20260901234756 79 69 0.0 1.0 0.00 0.07 0.07 91 1014.5
20260901234252 79 72 0.0 0.0 0.00 0.07 0.07 91 1014.5
20260901233746 79 74 0.0 0.0 0.00 0.07 0.07 91 1014.4
20260901233242 80 69 0.0 0.0 0.00 0.07 0.07 90 1014.1
20260901232742 80 74 0.0 0.0 0.00 0.07 0.07 89 1014.1
20260901232232 80 68 0.0 0.0 0.00 0.07 0.07 89 1013.8
20260901231728 80 105 0.0 0.0 0.00 0.07 0.07 89 1013.7
20260901231224 80 86 0.0 0.0 0.00 0.07 0.07 89 1014.0
20260901230720 79 89 0.0 1.0 0.00 0.07 0.07 89 1013.9
20260901230219 80 84 1.0 1.0 0.00 0.07 0.07 89 1014.2
20260901225714 80 106 1.0 1.0 0.00 0.07 0.07 88 1014.5
20260901225209 80 92 0.0 0.0 0.00 0.07 0.07 87 1014.6
20260901224705 80 88 0.0 0.0 0.00 0.07 0.07 87 1014.5
20260901224201 80 106 0.0 1.0 0.00 0.07 0.07 87 1014.8
20260901223657 80 88 0.0 1.0 0.00 0.07 0.07 89 1015.0
20260901223157 80 73 0.0 1.0 0.00 0.07 0.07 87 1014.9
20260901222653 80 349 3.0 3.0 0.00 0.07 0.07 88 1014.8
20260901222149 81 68 0.0 0.0 0.00 0.07 0.07 88 1014.8
20260901221645 80 78 0.0 0.0 0.00 0.07 0.07 89 1014.7
20260901221140 80 92 0.0 1.0 0.00 0.07 0.07 89 1014.8
20260901220639 79 81 0.0 0.0 0.00 0.07 0.07 89 1014.6
20260901220139 79 91 1.0 1.0 0.00 0.07 0.07 89 1014.7
20260901215638 78 90 0.0 0.0 0.00 0.07 0.07 90 1014.8
20260901215133 78 77 0.0 0.0 0.00 0.07 0.07 90 1015.0
20260901214631 78 83 0.0 0.0 0.00 0.07 0.07 89 1014.7
20260901214130 78 126 0.0 1.0 0.00 0.07 0.07 89 1014.8
20260901213625 79 338 1.0 1.0 0.00 0.07 0.07 91 1014.9
20260901213119 78 74 0.0 1.0 0.00 0.07 0.07 92 1014.7
20260901212613 78 75 0.0 0.0 0.00 0.07 0.07 91 1014.9
20260901212110 78 62 0.0 0.0 0.00 0.07 0.07 90 1015.0
20260901211604 78 62 0.0 0.0 0.00 0.07 0.07 89 1015.0
20260901211101 79 25 3.0 3.0 0.05 0.07 0.07 89 1015.2
20260901210556 79 85 2.0 2.0 0.05 0.07 0.07 90 1015.0
20260901210052 79 51 1.0 1.0 0.00 0.06 0.06 91 1014.8
20260901205547 79 36 2.0 2.0 0.00 0.06 0.06 92 1014.9
20260901205041 79 73 1.0 1.0 0.07 0.06 0.06 92 1014.7
20260901204538 79 55 0.0 1.0 0.07 0.06 0.06 92 1014.7
20260901204033 79 131 2.0 2.0 0.00 0.05 0.05 91 1014.9
20260901203533 79 211 1.0 1.0 0.00 0.05 0.05 92 1015.1
20260901203028 80 81 1.0 1.0 0.00 0.05 0.05 92 1014.8
20260901202522 80 85 0.0 0.0 0.17 0.05 0.05 92 1014.9
20260901202019 81 86 0.0 1.0 0.28 0.05 0.05 91 1015.0
20260901201514 82 86 0.0 0.0 0.00 0.00 0.00 89 1015.2
20260901201009 82 222 2.0 2.0 0.00 0.00 0.00 89 1015.8
20260901200509 82 95 0.0 1.0 0.00 0.00 0.00 89 1015.7
20260901200008 83 109 1.0 1.0 0.00 0.00 0.00 87 1015.0
20260901195506 83 169 3.0 3.0 0.00 0.00 0.00 84 1015.0
20260901195005 84 49 2.0 2.0 0.00 0.00 0.00 82 1015.1
20260901194501 84 78 1.0 1.0 0.00 0.00 0.00 82 1014.9
20260901193957 84 174 2.0 2.0 0.00 0.00 0.00 83 1015.0
20260901193456 84 117 2.0 2.0 0.00 0.00 0.00 83 1015.1
20260901192956 85 234 2.0 3.0 0.00 0.00 0.00 82 1015.7
20260901192452 85 27 2.0 2.0 0.00 0.00 0.00 81 1015.7
20260901191948 85 71 2.0 5.0 0.00 0.00 0.00 80 1015.6
20260901191443 87 168 4.0 7.0 0.00 0.00 0.00 76 1015.6
20260901190939 87 98 3.0 3.0 0.00 0.00 0.00 76 1015.4
20260901190434 86 134 2.0 2.0 0.00 0.00 0.00 78 1015.4
20260901185932 86 99 2.0 2.0 0.00 0.00 0.00 78 1015.3
20260901185431 86 131 3.0 5.0 0.00 0.00 0.00 77 1015.2
20260901184926 86 208 1.0 2.0 0.00 0.00 0.00 76 1015.2
20260901184421 87 226 2.0 3.0 0.00 0.00 0.00 75 1015.1
20260901183917 87 117 4.0 5.0 0.00 0.00 0.00 77 1015.3
20260901183416 87 118 1.0 1.0 0.00 0.00 0.00 79 1015.2
20260901182912 86 225 2.0 2.0 0.00 0.00 0.00 81 1015.1
20260901182407 86 151 3.0 3.0 0.00 0.00 0.00 80 1015.3
20260901181902 86 165 2.0 2.0 0.00 0.00 0.00 80 1015.3
20260901181357 87 37 1.0 1.0 0.00 0.00 0.00 79 1015.3
20260901180855 87 93 2.0 3.0 0.00 0.00 0.00 79 1015.1
20260901180355 88 38 1.0 2.0 0.00 0.00 0.00 79 1015.3
20260901175853 88 123 4.0 6.0 0.00 0.00 0.00 76 1015.0
20260901175348 87 72 0.0 1.0 0.00 0.00 0.00 79 1015.3
20260901174843 87 28 2.0 3.0 0.00 0.00 0.00 80 1015.2
20260901174339 85 128 2.0 2.0 0.00 0.00 0.00 81 1015.3
20260901173835 86 84 0.0 1.0 0.00 0.00 0.00 83 1015.6
20260901173329 86 136 2.0 2.0 0.00 0.00 0.00 82 1015.7
20260901172826 87 262 2.0 2.0 0.00 0.00 0.00 80 1015.6
20260901172325 86 21 2.0 2.0 0.00 0.00 0.00 82 1015.7
20260901171823 85 82 1.0 1.0 0.00 0.00 0.00 85 1015.8
20260901171323 85 312 3.0 5.0 0.00 0.00 0.00 84 1015.9
20260901170822 85 47 1.0 1.0 0.00 0.00 0.00 84 1015.7
20260901170317 85 138 3.0 3.0 0.00 0.00 0.00 84 1015.9
20260901165816 86 114 2.0 2.0 0.00 0.00 0.00 84 1015.8
20260901165310 86 105 3.0 3.0 0.00 0.00 0.00 83 1015.8
20260901164807 85 87 0.0 1.0 0.00 0.00 0.00 84 1015.7
20260901164302 85 20 0.0 1.0 0.00 0.00 0.00 86 1015.8
20260901163756 84 128 0.0 0.0 0.00 0.00 0.00 87 1015.8
20260901163250 83 116 1.0 1.0 0.00 0.00 0.00 87 1015.8
20260901162745 83 93 0.0 0.0 0.00 0.00 0.00 87 1015.4
20260901162245 83 81 1.0 1.0 0.00 0.00 0.00 86 1015.3
20260901161743 84 81 1.0 1.0 0.00 0.00 0.00 85 1015.8
20260901161238 84 87 1.0 1.0 0.00 0.00 0.00 86 1016.0
20260901160734 83 95 1.0 1.0 0.00 0.00 0.00 88 1016.5
20260901160230 83 77 1.0 1.0 0.00 0.00 0.00 87 1016.0
20260901155728 83 113 1.0 1.0 0.00 0.00 0.00 87 1016.3
20260901155224 84 244 2.0 2.0 0.00 0.00 0.00 85 1016.0
20260901154719 84 161 3.0 3.0 0.00 0.00 0.00 84 1015.8
20260901154215 83 72 0.0 0.0 0.00 0.00 0.00 86 1015.9
20260901153709 83 108 1.0 1.0 0.00 0.00 0.00 86 1016.0
20260901153203 83 23 2.0 2.0 0.00 0.00 0.00 86 1015.8
20260901152658 83 56 2.0 2.0 0.00 0.00 0.00 85 1015.8
20260901152156 84 75 0.0 0.0 0.00 0.00 0.00 85 1015.8
20260901151653 84 80 0.0 0.0 0.00 0.00 0.00 85 1015.8
20260901151151 84 80 0.0 0.0 0.00 0.00 0.00 84 1015.8
20260901150651 84 109 0.0 1.0 0.00 0.00 0.00 84 1016.0
20260901150149 84 113 1.0 2.0 0.00 0.00 0.00 83 1015.7
20260901145648 84 81 0.0 1.0 0.00 0.00 0.00 83 1016.0
20260901145148 83 77 0.0 0.0 0.00 0.00 0.00 86 1015.8
20260901144643 82 75 0.0 0.0 0.00 0.00 0.00 87 1015.9
20260901144138 82 80 0.0 0.0 0.00 0.00 0.00 86 1015.9
20260901143633 82 79 0.0 0.0 0.00 0.00 0.00 86 1015.9
20260901143130 82 61 1.0 1.0 0.00 0.00 0.00 86 1015.8
20260901142626 82 11 2.0 2.0 0.00 0.00 0.00 86 1016.0
20260901142125 81 356 1.0 2.0 0.00 0.00 0.00 86 1015.9
20260901141620 80 95 1.0 1.0 0.00 0.00 0.00 88 1016.0
20260901141114 80 35 1.0 1.0 0.00 0.00 0.00 88 1016.1
20260901140613 79 106 2.0 2.0 0.00 0.00 0.00 88 1015.8
20260901140113 79 257 1.0 2.0 0.00 0.00 0.00 89 1016.1
20260901135612 79 27 1.0 1.0 0.00 0.00 0.00 89 1016.0
20260901135108 78 78 0.0 0.0 0.00 0.00 0.00 90 1015.8
20260901134603 78 98 0.0 0.0 0.00 0.00 0.00 91 1016.0
20260901134058 77 28 0.0 0.0 0.00 0.00 0.00 91 1015.8
20260901133557 77 80 0.0 1.0 0.00 0.00 0.00 92 1016.0
20260901133056 77 46 0.0 0.0 0.00 0.00 0.00 92 1015.8
20260901132551 76 106 1.0 1.0 0.00 0.00 0.00 92 1016.0
20260901132050 76 96 0.0 1.0 0.00 0.00 0.00 93 1016.0
20260901131544 75 96 0.0 0.0 0.00 0.00 0.00 94 1015.8
20260901131034 75 176 1.0 2.0 0.00 0.00 0.00 95 1016.0
20260901130534 75 95 1.0 1.0 0.00 0.00 0.00 96 1015.8
20260901130033 74 106 1.0 1.0 0.00 0.00 0.00 96 1015.7
20260901125531 73 79 0.0 0.0 0.00 0.00 0.00 97 1016.1
20260901125027 73 91 0.0 0.0 0.00 0.00 0.00 97 1015.9
20260901124522 73 81 0.0 0.0 0.00 0.00 0.00 97 1015.9
20260901124021 73 82 0.0 0.0 0.00 0.00 0.00 97 1016.1
20260901123516 73 96 0.0 0.0 0.00 0.00 0.00 97 1015.9
20260901123016 73 80 0.0 0.0 0.00 0.00 0.00 98 1015.9
20260901122514 73 105 0.0 0.0 0.00 0.00 0.00 98 1015.8
20260901122014 73 80 0.0 0.0 0.00 0.00 0.00 98 1015.7
20260901121509 72 93 0.0 0.0 0.00 0.00 0.00 98 1015.7
20260901121004 72 79 0.0 0.0 0.00 0.00 0.00 98 1015.4
20260901120503 72 95 0.0 0.0 0.00 0.00 0.00 98 1015.6
20260901115959 72 86 0.0 0.0 0.00 0.00 0.00 98 1015.7
20260901115454 72 90 0.0 0.0 0.00 0.00 0.00 98 1015.4
20260901114952 72 92 0.0 0.0 0.00 0.00 0.00 98 1015.4
20260901114447 72 84 0.0 0.0 0.00 0.00 0.00 98 1015.1
20260901113945 72 100 0.0 0.0 0.00 0.00 0.00 98 1015.1
20260901113444 72 87 0.0 0.0 0.00 0.00 0.00 98 1015.0
20260901112939 72 82 0.0 0.0 0.00 0.00 0.00 98 1014.9
20260901112434 71 87 0.0 0.0 0.00 0.00 0.00 98 1014.8
20260901111924 71 85 0.0 0.0 0.00 0.00 0.00 98 1015.0
20260901111422 71 96 0.0 0.0 0.00 0.00 0.00 98 1014.6
20260901110921 71 86 0.0 0.0 0.00 0.00 0.00 98 1014.9
20260901110417 71 87 0.0 0.0 0.00 0.00 0.00 98 1014.7
20260901105913 71 84 0.0 0.0 0.00 0.00 0.00 98 1014.3
20260901105408 72 84 0.0 0.0 0.00 0.00 0.00 98 1014.5
20260901104904 71 84 0.0 0.0 0.00 0.00 0.00 97 1014.9
20260901104359 72 92 0.0 0.0 0.00 0.00 0.00 97 1014.7
20260901103854 72 82 0.0 0.0 0.00 0.00 0.00 98 1014.7
20260901103348 72 87 0.0 0.0 0.00 0.00 0.00 98 1014.5
20260901102843 72 41 0.0 0.0 0.00 0.00 0.00 98 1014.6
20260901102338 72 95 0.0 0.0 0.00 0.00 0.00 97 1014.6
20260901101834 72 88 0.0 0.0 0.00 0.00 0.00 97 1014.5
20260901101333 71 87 0.0 0.0 0.00 0.00 0.00 97 1014.7
20260901100833 72 80 0.0 0.0 0.00 0.00 0.00 97 1014.6
20260901100328 72 88 0.0 0.0 0.00 0.00 0.00 97 1014.7
20260901095827 72 87 0.0 0.0 0.00 0.00 0.00 97 1014.7